TimeCDT,TemperatureF,Dew PointF,Humidity,Sea Level PressureIn,VisibilityMPH,Wind Direction,Wind SpeedMPH,Gust SpeedMPH,PrecipitationIn,Events,Conditions,WindDirDegrees,DateUTC
12:15 AM,60.8,46.4,59,30.01,10.0,ESE,3.5,-,N/A,,Clear,120,2013-05-01 05:15:00
12:35 AM,60.8,46.4,59,30.01,10.0,Calm,Calm,-,N/A,,Clear,0,2013-05-01 05:35:00
12:55 AM,59.0,46.4,63,30.01,10.0,SE,4.6,-,N/A,,Clear,130,2013-05-01 05:55:00
1:15 AM,59.0,46.4,63,30.01,10.0,Calm,Calm,-,N/A,,Clear,0,2013-05-01 06:15:00
1:35 AM,55.4,46.4,72,30.01,10.0,Calm,Calm,-,N/A,,Clear,0,2013-05-01 06:35:00
2:15 AM,57.2,46.4,67,30.01,10.0,SE,3.5,-,N/A,,Clear,130,2013-05-01 07:15:00
2:35 AM,55.4,44.6,67,30.01,10.0,Calm,Calm,-,N/A,,Clear,0,2013-05-01 07:35:00
2:55 AM,57.2,46.4,67,30.01,10.0,SE,3.5,-,N/A,,Clear,130,2013-05-01 07:55:00
3:15 AM,59.0,46.4,63,30.02,10.0,SE,3.5,-,N/A,,Clear,130,2013-05-01 08:15:00
3:35 AM,57.2,46.4,67,30.02,10.0,SE,3.5,-,N/A,,Clear,140,2013-05-01 08:35:00
3:55 AM,57.2,44.6,63,30.03,10.0,SE,3.5,-,N/A,,Clear,140,2013-05-01 08:55:00
4:15 AM,57.2,44.6,63,30.03,10.0,SSE,4.6,-,N/A,,Clear,160,2013-05-01 09:15:00
4:35 AM,55.4,44.6,67,30.03,10.0,Calm,Calm,-,N/A,,Clear,0,2013-05-01 09:35:00
4:55 AM,57.2,44.6,63,30.03,10.0,Calm,Calm,-,N/A,,Clear,0,2013-05-01 09:55:00
5:15 AM,57.2,44.6,63,30.04,10.0,Calm,Calm,-,N/A,,Clear,0,2013-05-01 10:15:00
5:35 AM,57.2,44.6,63,30.05,10.0,ESE,3.5,-,N/A,,Clear,120,2013-05-01 10:35:00
5:55 AM,57.2,44.6,63,30.05,10.0,SSE,3.5,-,N/A,,Clear,160,2013-05-01 10:55:00
6:15 AM,57.2,44.6,63,30.07,10.0,Calm,Calm,-,N/A,,Clear,0,2013-05-01 11:15:00
6:35 AM,55.4,44.6,67,30.08,10.0,Calm,Calm,-,N/A,,Clear,0,2013-05-01 11:35:00
7:15 AM,62.6,48.2,59,30.09,10.0,ESE,4.6,-,N/A,,Clear,120,2013-05-01 12:15:00
7:35 AM,64.4,48.2,56,30.10,10.0,Calm,Calm,-,N/A,,Clear,0,2013-05-01 12:35:00
8:15 AM,57.2,51.8,82,30.10,10.0,ESE,4.6,-,N/A,,Clear,110,2013-05-01 13:15:00
8:35 AM,59.0,51.8,77,30.11,10.0,SSE,5.8,-,N/A,,Clear,150,2013-05-01 13:35:00
9:15 AM,62.6,53.6,72,30.11,10.0,SSE,9.2,-,N/A,,Clear,150,2013-05-01 14:15:00
9:35 AM,64.4,53.6,68,30.11,10.0,SSE,9.2,-,N/A,,Clear,160,2013-05-01 14:35:00
9:55 AM,69.8,53.6,56,30.11,10.0,South,9.2,-,N/A,,Clear,170,2013-05-01 14:55:00
10:15 AM,71.6,55.4,57,30.11,10.0,SSE,9.2,-,N/A,,Clear,160,2013-05-01 15:15:00
10:35 AM,75.2,55.4,50,30.11,10.0,SSW,3.5,-,N/A,,Clear,200,2013-05-01 15:35:00
11:15 AM,75.2,55.4,50,30.11,10.0,South,8.1,-,N/A,,Clear,170,2013-05-01 16:15:00
11:35 AM,78.8,55.4,44,30.11,10.0,South,8.1,-,N/A,,Clear,180,2013-05-01 16:35:00
11:55 AM,78.8,55.4,44,30.10,10.0,SE,5.8,-,N/A,,Clear,130,2013-05-01 16:55:00
12:15 PM,78.8,57.2,47,30.10,10.0,SSE,4.6,-,N/A,,Clear,150,2013-05-01 17:15:00
12:35 PM,80.6,57.2,45,30.10,10.0,SSE,4.6,-,N/A,,Clear,160,2013-05-01 17:35:00
1:15 PM,80.6,57.2,45,30.09,10.0,East,6.9,-,N/A,,Scattered Clouds,90,2013-05-01 18:15:00
1:35 PM,80.6,55.4,42,30.10,10.0,ESE,8.1,-,N/A,,Mostly Cloudy,110,2013-05-01 18:35:00
1:55 PM,80.6,55.4,42,30.10,10.0,SE,6.9,-,N/A,,Scattered Clouds,130,2013-05-01 18:55:00
2:15 PM,80.6,55.4,42,30.10,10.0,East,8.1,-,N/A,,Scattered Clouds,100,2013-05-01 19:15:00
2:35 PM,80.6,57.2,45,30.10,10.0,East,11.5,-,N/A,,Mostly Cloudy,90,2013-05-01 19:35:00
3:15 PM,80.6,57.2,45,30.09,10.0,SE,6.9,-,N/A,,Partly Cloudy,140,2013-05-01 20:15:00
3:35 PM,80.6,55.4,42,30.08,10.0,SE,8.1,-,N/A,,Scattered Clouds,140,2013-05-01 20:35:00
3:55 PM,80.6,55.4,42,30.08,10.0,SE,6.9,-,N/A,,Scattered Clouds,130,2013-05-01 20:55:00
4:15 PM,80.6,53.6,39,30.08,10.0,ESE,8.1,-,N/A,,Clear,120,2013-05-01 21:15:00
4:35 PM,80.6,53.6,39,30.08,10.0,SE,8.1,-,N/A,,Clear,130,2013-05-01 21:35:00
5:15 PM,80.6,53.6,39,30.07,10.0,East,9.2,-,N/A,,Clear,100,2013-05-01 22:15:00
5:35 PM,80.6,53.6,39,30.07,10.0,ESE,5.8,-,N/A,,Clear,120,2013-05-01 22:35:00
5:55 PM,80.6,53.6,39,30.07,10.0,ESE,8.1,-,N/A,,Clear,120,2013-05-01 22:55:00
6:15 PM,78.8,55.4,44,30.07,10.0,ESE,4.6,-,N/A,,Clear,110,2013-05-01 23:15:00
6:35 PM,78.8,55.4,44,30.07,10.0,ESE,4.6,-,N/A,,Clear,110,2013-05-01 23:35:00
6:55 PM,77.0,55.4,47,30.07,10.0,ESE,3.5,-,N/A,,Clear,110,2013-05-01 23:55:00
7:15 PM,75.2,55.4,50,30.07,10.0,East,3.5,-,N/A,,Clear,100,2013-05-02 00:15:00
7:35 PM,75.2,53.6,47,30.07,10.0,Calm,Calm,-,N/A,,Clear,0,2013-05-02 00:35:00
7:55 PM,75.2,53.6,47,30.08,10.0,Calm,Calm,-,N/A,,Clear,0,2013-05-02 00:55:00
8:35 PM,71.6,53.6,53,30.09,10.0,Calm,Calm,-,N/A,,Clear,0,2013-05-02 01:35:00
8:55 PM,69.8,53.6,56,30.09,10.0,Calm,Calm,-,N/A,,Clear,0,2013-05-02 01:55:00
9:35 PM,68.0,53.6,60,30.10,10.0,Calm,Calm,-,N/A,,Clear,0,2013-05-02 02:35:00
9:55 PM,66.2,53.6,64,30.10,10.0,Calm,Calm,-,N/A,,Clear,0,2013-05-02 02:55:00
10:15 PM,66.2,53.6,64,30.10,10.0,Calm,Calm,-,N/A,,Clear,0,2013-05-02 03:15:00
10:35 PM,66.2,53.6,64,30.10,10.0,Calm,Calm,-,N/A,,Clear,0,2013-05-02 03:35:00
10:55 PM,64.4,53.6,68,30.09,10.0,Calm,Calm,-,N/A,,Partly Cloudy,0,2013-05-02 03:55:00
11:15 PM,64.4,51.8,64,30.09,10.0,Calm,Calm,-,N/A,,Partly Cloudy,0,2013-05-02 04:15:00
11:35 PM,62.6,51.8,68,30.09,10.0,Calm,Calm,-,N/A,,Partly Cloudy,0,2013-05-02 04:35:00
11:55 PM,62.6,51.8,68,30.09,10.0,Calm,Calm,-,N/A,,Clear,0,2013-05-02 04:55:00